EW5291 Weather Reports


Display with metric or nautical units.
time (UTC)temp
F
wind
direction
speed
MPH
gust
MPH
rain 1hr
in
rain 24hr
in
rain mn
in
humidity
%
barometer
mb
20260905212003 68 0 0.0 0.0 0.27 0.27 0.27 80 1009.9
20260905211610 68 190 0.0 0.0 0.27 0.27 0.27 80 1009.9
20260905211503 68 0 0.0 0.0 0.27 0.27 0.27 79 1009.8
20260905211003 69 0 0.0 0.0 0.27 0.27 0.27 79 1010.0
20260905210503 69 0 0.0 0.0 0.25 0.25 0.25 78 1010.0
20260905210120 69 190 0.0 0.0 0.22 0.22 0.22 76 1010.1
20260905210003 70 0 0.0 0.0 0.22 0.22 0.22 76 1009.9
20260905205503 71 0 0.0 0.0 0.21 0.21 0.21 74 1009.8
20260905205003 72 0 0.0 0.0 0.21 0.21 0.21 72 1009.8
20260905204604 72 190 0.0 0.0 0.07 0.07 0.07 69 1010.0
20260905204503 73 0 0.0 0.0 0.06 0.06 0.06 68 1009.7
20260905204003 74 0 0.0 0.0 0.00 0.00 0.00 66 1009.4
20260905203503 74 0 0.0 0.0 0.00 0.00 0.00 65 1009.5
20260905203103 74 190 0.0 1.0 0.00 0.00 0.00 62 1009.5
20260905203003 74 191 0.0 1.0 0.00 0.00 0.00 62 1009.4
20260905202503 75 191 0.0 1.0 0.00 0.00 0.00 59 1009.4
20260905202003 75 0 0.0 0.0 0.00 0.00 0.00 59 1009.4
20260905201602 75 190 0.0 0.0 0.00 0.00 0.00 62 1009.6
20260905201503 75 0 0.0 0.0 0.00 0.00 0.00 60 1009.4
20260905201003 76 0 0.0 0.0 0.00 0.00 0.00 62 1009.4
20260905200127 76 190 0.0 0.0 0.00 0.00 0.00 62 1009.3
20260905200003 76 191 0.0 1.0 0.00 0.00 0.00 61 1009.2
20260905195503 77 191 0.0 1.0 0.00 0.00 0.00 58 1009.2
20260905195004 77 0 0.0 0.0 0.00 0.00 0.00 58 1009.2
20260905194602 76 190 0.0 0.0 0.00 0.00 0.00 59 1009.4
20260905194503 76 0 0.0 0.0 0.00 0.00 0.00 59 1009.3
20260905194003 77 0 0.0 0.0 0.00 0.00 0.00 59 1009.3
20260905193503 77 0 0.0 0.0 0.00 0.00 0.00 60 1009.3
20260905193103 77 190 0.0 0.0 0.00 0.00 0.00 59 1009.3
20260905193004 77 0 0.0 0.0 0.00 0.00 0.00 59 1009.2
20260905192504 77 0 0.0 0.0 0.00 0.00 0.00 59 1009.3
20260905192004 77 0 0.0 0.0 0.00 0.00 0.00 59 1009.3
20260905191602 77 190 0.0 0.0 0.00 0.00 0.00 60 1009.3
20260905191504 77 0 0.0 0.0 0.00 0.00 0.00 59 1009.3
20260905191003 76 191 0.0 1.0 0.00 0.00 0.00 63 1009.3
20260905190503 76 191 0.0 1.0 0.00 0.00 0.00 60 1009.2
20260905190003 74 0 0.0 0.0 0.00 0.00 0.00 68 1009.3
20260905185504 73 0 0.0 0.0 0.00 0.00 0.00 66 1009.3
20260905185004 73 0 0.0 0.0 0.00 0.00 0.00 68 1009.4
20260905184609 73 190 0.0 0.0 0.00 0.00 0.00 67 1009.5
20260905183504 73 0 0.0 0.0 0.00 0.00 0.00 67 1009.4
20260905183104 72 190 0.0 0.0 0.00 0.00 0.00 66 1009.4
20260905183004 73 0 0.0 0.0 0.00 0.00 0.00 66 1009.4
20260905182503 73 0 0.0 0.0 0.00 0.00 0.00 64 1009.4
20260905181602 74 190 0.0 0.0 0.00 0.00 0.00 63 1009.6
20260905180503 76 0 0.0 0.0 0.00 0.00 0.00 60 1009.5
20260905180103 75 190 0.0 1.0 0.00 0.00 0.00 60 1009.6
20260905180004 76 191 0.0 1.0 0.00 0.00 0.00 60 1009.4
20260905175504 76 191 0.0 1.0 0.00 0.00 0.00 54 1009.5
20260905175003 75 0 0.0 0.0 0.00 0.00 0.00 64 1009.5
20260905174609 74 190 0.0 0.0 0.00 0.00 0.00 63 1009.6
20260905174503 75 0 0.0 0.0 0.00 0.00 0.00 62 1009.5
20260905173503 76 0 0.0 0.0 0.00 0.00 0.00 59 1009.4
20260905173103 77 190 0.0 0.0 0.00 0.00 0.00 56 1009.5
20260905173004 77 0 0.0 0.0 0.00 0.00 0.00 53 1009.3
20260905172004 78 0 0.0 0.0 0.00 0.00 0.00 55 1009.4
20260905171603 78 190 0.0 0.0 0.00 0.00 0.00 54 1009.5
20260905171504 78 0 0.0 0.0 0.00 0.00 0.00 53 1009.3
20260905171003 78 0 0.0 0.0 0.00 0.00 0.00 53 1009.4
20260905170504 78 191 0.0 2.0 0.00 0.00 0.00 51 1009.4
20260905170004 78 191 0.0 3.0 0.00 0.00 0.00 50 1009.3
20260905165503 79 190 0.0 3.0 0.00 0.00 0.00 54 1009.3
20260905165003 79 191 0.0 4.0 0.00 0.00 0.00 52 1009.3
20260905164606 79 190 0.0 5.0 0.00 0.00 0.00 50 1009.4
20260905164503 80 191 0.0 4.0 0.00 0.00 0.00 49 1009.3
20260905164004 80 0 0.0 0.0 0.00 0.00 0.00 50 1009.2
20260905163503 79 0 0.0 0.0 0.00 0.00 0.00 54 1009.3
20260905163103 78 190 0.0 2.0 0.00 0.00 0.00 54 1009.4
20260905162503 78 191 0.0 4.0 0.00 0.00 0.00 55 1009.2
20260905162004 77 191 0.0 4.0 0.00 0.00 0.00 52 1009.3
20260905161603 77 190 0.0 2.0 0.00 0.00 0.00 52 1009.5
20260905161503 77 191 0.0 3.0 0.00 0.00 0.00 54 1009.4
20260905160503 77 191 0.0 4.0 0.00 0.00 0.00 56 1009.5
20260905155503 76 191 0.0 2.0 0.00 0.00 0.00 56 1009.5
20260905155003 77 191 0.0 2.0 0.00 0.00 0.00 54 1009.5
20260905154605 76 190 0.0 2.0 0.00 0.00 0.00 54 1009.7
20260905154004 76 191 0.0 3.0 0.00 0.00 0.00 61 1009.6
20260905153503 76 191 0.0 3.0 0.00 0.00 0.00 57 1009.8
20260905153103 75 190 0.0 3.0 0.00 0.00 0.00 58 1010.0
20260905153004 76 191 0.0 1.0 0.00 0.00 0.00 57 1009.8
20260905152504 76 191 0.0 1.0 0.00 0.00 0.00 59 1009.7
20260905152003 76 191 0.0 3.0 0.00 0.00 0.00 55 1009.7
20260905151631 75 190 0.0 3.0 0.00 0.00 0.00 55 1009.8
20260905151504 76 191 0.0 3.0 0.00 0.00 0.00 55 1009.8
20260905150504 76 191 0.0 3.0 0.00 0.00 0.00 56 1009.7
20260905150003 75 190 0.0 6.0 0.00 0.00 0.00 59 1009.6
20260905145504 75 191 0.0 6.0 0.00 0.00 0.00 57 1009.6
20260905145003 75 191 0.0 6.0 0.00 0.00 0.00 59 1009.7
20260905144601 74 190 0.0 0.0 0.00 0.01 0.00 64 1009.8
20260905144503 74 0 0.0 0.0 0.00 0.01 0.00 63 1009.7
20260905144003 74 191 0.0 1.0 0.00 0.01 0.00 65 1009.7
20260905143102 71 190 0.0 1.0 0.00 0.01 0.00 67 1010.0
20260905142003 71 191 0.0 5.0 0.00 0.01 0.00 68 1009.9
20260905141602 71 190 0.0 4.0 0.00 0.01 0.00 67 1010.1
20260905141504 71 191 0.0 2.0 0.00 0.01 0.00 68 1010.0
20260905140503 71 191 0.0 4.0 0.00 0.01 0.00 68 1009.9
20260905140103 71 190 0.0 0.0 0.00 0.01 0.00 67 1010.0
20260905140004 71 0 0.0 0.0 0.00 0.01 0.00 70 1009.9
20260905135504 71 0 0.0 0.0 0.00 0.01 0.00 70 1009.9
20260905134607 71 190 0.0 5.0 0.00 0.01 0.00 70 1010.0
20260905134503 71 191 0.0 3.0 0.00 0.01 0.00 69 1010.0
20260905134004 71 0 0.0 0.0 0.00 0.01 0.00 71 1009.9
20260905133504 70 0 0.0 0.0 0.00 0.01 0.00 73 1009.9
20260905133103 69 190 0.0 0.0 0.00 0.01 0.00 75 1010.0
20260905133003 70 0 0.0 0.0 0.00 0.01 0.00 75 1009.8
20260905132503 69 0 0.0 0.0 0.00 0.01 0.00 78 1009.8
20260905132003 68 0 0.0 0.0 0.00 0.01 0.00 82 1009.7
20260905131608 66 190 0.0 0.0 0.00 0.01 0.00 82 1009.9
20260905131003 66 0 0.0 0.0 0.00 0.01 0.00 82 1009.9
20260905130503 65 0 0.0 0.0 0.00 0.01 0.00 82 1010.1
20260905130004 64 0 0.0 0.0 0.00 0.01 0.00 82 1010.1
20260905124515 61 190 0.0 0.0 0.00 0.01 0.00 82 1010.2
20260905123029 59 190 0.0 0.0 0.00 0.01 0.00 82 1010.1
20260905121506 57 190 0.0 0.0 0.00 0.01 0.00 82 1010.0
20260905120005 56 190 0.0 0.0 0.00 0.01 0.00 82 1009.8
20260905114504 56 190 0.0 0.0 0.00 0.01 0.00 82 1009.6
20260905113004 55 190 0.0 0.0 0.00 0.01 0.00 82 1009.6
20260905111503 55 190 0.0 0.0 0.00 0.01 0.00 82 1009.6
20260905110005 54 190 0.0 0.0 0.00 0.01 0.00 82 1009.3
20260905104502 54 190 0.0 0.0 0.00 0.01 0.00 82 1009.1
20260905103105 54 190 0.0 0.0 0.00 0.01 0.00 82 1009.3
20260905101600 54 190 0.0 0.0 0.00 0.01 0.00 82 1009.2
20260905100108 55 190 0.0 0.0 0.00 0.01 0.00 82 1009.1
20260905094557 55 190 0.0 0.0 0.00 0.01 0.00 82 1009.1
20260905093058 55 190 0.0 0.0 0.00 0.01 0.00 82 1009.0
20260905091556 55 190 0.0 0.0 0.00 0.01 0.00 82 1008.9
20260905090053 55 190 0.0 0.0 0.00 0.01 0.00 82 1008.8
20260905084605 56 190 0.0 0.0 0.00 0.01 0.00 82 1008.8
20260905083052 56 190 0.0 0.0 0.00 0.01 0.00 82 1008.7
20260905081549 56 190 0.0 0.0 0.00 0.01 0.00 82 1008.8
20260905080112 57 190 0.0 0.0 0.00 0.01 0.00 82 1008.9
20260905074545 57 190 0.0 0.0 0.00 0.01 0.00 82 1008.9
20260905073044 57 190 0.0 0.0 0.00 0.01 0.00 82 1009.0
20260905071543 57 190 0.0 0.0 0.00 0.01 0.00 82 1008.9
20260905070050 57 190 0.0 0.0 0.00 0.01 0.00 82 1008.9
20260905064547 58 190 0.0 0.0 0.00 0.01 0.00 82 1009.2
20260905063041 58 190 0.0 0.0 0.00 0.01 0.00 82 1009.2
20260905061539 58 190 0.0 0.0 0.00 0.01 0.00 82 1009.2
20260905060046 59 190 0.0 0.0 0.00 0.01 0.00 82 1009.4
20260905054537 59 190 0.0 0.0 0.00 0.01 0.00 82 1009.4
20260905053031 59 190 0.0 0.0 0.00 0.01 0.00 82 1009.7
20260905051535 59 190 0.0 0.0 0.00 0.01 0.00 82 1009.7
20260905050029 60 190 0.0 0.0 0.00 0.01 0.00 82 1009.9
20260905044535 60 190 0.0 0.0 0.00 0.01 0.00 82 1009.9
20260905043023 60 190 0.0 0.0 0.00 0.01 0.00 82 1009.7
20260905041522 61 190 0.0 0.0 0.00 0.01 0.00 82 1009.4
20260905040026 61 190 0.0 0.0 0.00 0.01 0.01 82 1009.2
20260905034519 61 190 0.0 0.0 0.00 0.01 0.01 82 1009.3
20260905033015 62 190 0.0 0.0 0.00 0.01 0.01 82 1009.5
20260905031525 62 190 0.0 0.0 0.00 0.01 0.01 82 1009.6
20260905030016 62 190 0.0 0.0 0.00 0.01 0.01 82 1009.6
20260905024515 63 190 0.0 0.0 0.00 0.01 0.01 82 1009.4
20260905023004 63 0 0.0 0.0 0.00 0.01 0.01 82 1009.5
20260905023001 63 190 0.0 0.0 0.00 0.01 0.01 82 1009.5
20260905022503 63 0 0.0 0.0 0.00 0.01 0.01 82 1009.5
20260905022003 64 0 0.0 0.0 0.00 0.01 0.01 81 1009.4
20260905021503 64 0 0.0 0.0 0.00 0.01 0.01 81 1009.5
20260905021003 64 0 0.0 0.0 0.00 0.01 0.01 81 1009.5
20260905020503 64 0 0.0 0.0 0.00 0.01 0.01 81 1009.6
20260905020003 64 190 0.0 0.0 0.00 0.01 0.01 81 1009.7
20260905015504 64 0 0.0 0.0 0.00 0.01 0.01 81 1009.6
20260905015004 64 0 0.0 0.0 0.00 0.01 0.01 81 1009.7
20260905014504 64 190 0.0 0.0 0.00 0.01 0.01 81 1009.6
20260905014004 65 0 0.0 0.0 0.00 0.01 0.01 81 1009.7
20260905013504 65 0 0.0 0.0 0.00 0.01 0.01 81 1009.8
20260905013004 65 0 0.0 0.0 0.00 0.01 0.01 81 1009.8
20260905012503 65 0 0.0 0.0 0.00 0.01 0.01 81 1009.8
20260905012003 65 0 0.0 0.0 0.00 0.01 0.01 80 1009.8
20260905011504 65 190 0.0 0.0 0.00 0.01 0.01 80 1009.8
20260905011003 66 0 0.0 0.0 0.00 0.01 0.01 80 1009.8
20260905010503 66 0 0.0 0.0 0.00 0.01 0.01 80 1009.7
20260905010003 65 190 0.0 0.0 0.00 0.01 0.01 80 1009.8
20260905005503 66 0 0.0 0.0 0.00 0.01 0.01 80 1009.8
20260905005003 66 0 0.0 0.0 0.00 0.01 0.01 80 1009.9
20260905004503 66 0 0.0 0.0 0.00 0.01 0.01 80 1009.9
20260905004003 66 0 0.0 0.0 0.00 0.01 0.01 80 1009.8
20260905003503 66 0 0.0 0.0 0.00 0.01 0.01 79 1009.7
20260905003003 66 0 0.0 0.0 0.00 0.01 0.01 79 1009.5
20260905002503 66 0 0.0 0.0 0.00 0.01 0.01 79 1009.5
20260905002003 66 0 0.0 0.0 0.00 0.01 0.01 78 1009.4
20260905001503 66 190 0.0 0.0 0.00 0.01 0.01 77 1009.3
20260905001003 67 0 0.0 0.0 0.00 0.01 0.01 77 1009.2
20260905000503 67 0 0.0 0.0 0.00 0.01 0.01 77 1009.3
20260905000003 67 190 0.0 0.0 0.00 0.01 0.01 76 1009.3
20260904235504 67 0 0.0 0.0 0.00 0.01 0.01 76 1009.2
20260904234504 68 0 0.0 0.0 0.00 0.01 0.01 74 1009.2
20260904234502 67 190 0.0 0.0 0.00 0.01 0.01 74 1009.2
20260904234004 68 0 0.0 0.0 0.00 0.01 0.01 73 1009.0
20260904233504 68 0 0.0 0.0 0.00 0.01 0.01 73 1009.0
20260904233009 68 190 0.0 0.0 0.00 0.01 0.01 73 1009.0
20260904233004 69 0 0.0 0.0 0.00 0.01 0.01 73 1009.1
20260904232003 70 0 0.0 0.0 0.00 0.01 0.01 71 1009.2
20260904231505 70 190 0.0 0.0 0.00 0.01 0.01 70 1009.1
20260904231003 70 0 0.0 0.0 0.00 0.01 0.01 70 1009.0
20260904230503 71 0 0.0 0.0 0.00 0.01 0.01 68 1009.0
20260904230003 71 190 0.0 0.0 0.00 0.01 0.01 69 1009.0
20260904225503 71 0 0.0 0.0 0.00 0.01 0.01 69 1009.0
20260904225003 72 0 0.0 0.0 0.00 0.01 0.01 68 1008.9
20260904224503 71 190 0.0 0.0 0.00 0.01 0.01 69 1008.9
20260904224004 72 0 0.0 0.0 0.00 0.01 0.01 69 1008.8
20260904223504 72 0 0.0 0.0 0.00 0.01 0.01 68 1008.7
20260904223003 72 190 0.0 0.0 0.00 0.01 0.01 68 1008.8
20260904222503 73 0 0.0 0.0 0.00 0.01 0.01 68 1008.8
20260904222004 73 0 0.0 0.0 0.00 0.01 0.01 64 1008.8
20260904221504 73 0 0.0 0.0 0.00 0.01 0.01 64 1008.7
20260904221004 73 0 0.0 0.0 0.00 0.01 0.01 67 1008.6
20260904220504 73 0 0.0 0.0 0.00 0.01 0.01 66 1008.6
20260904220112 73 190 0.0 0.0 0.00 0.01 0.01 65 1008.6
20260904220004 74 0 0.0 0.0 0.00 0.01 0.01 67 1008.6
20260904215503 74 0 0.0 0.0 0.00 0.01 0.01 65 1008.7
20260904215003 74 0 0.0 0.0 0.00 0.01 0.01 63 1008.7
20260904214504 74 190 0.0 0.0 0.00 0.01 0.01 62 1008.6
20260904214004 75 0 0.0 0.0 0.00 0.01 0.01 62 1008.6
20260904213503 75 191 0.0 1.0 0.00 0.01 0.01 63 1008.7
20260904213003 75 191 0.0 1.0 0.00 0.01 0.01 62 1008.8
20260904212504 76 191 0.0 1.0 0.00 0.01 0.01 60 1008.9